Location: Unspecified
(0.0000°N, 0.0000°E)
Time: 00:45:39
(UTC+00:00)

ISS - Pass Details

Date: 22 March 2017
Orbit: 399 x 409 km, 51.6° (Epoch: 30 March)

Event Time Altitude Azimuth Distance (km) Brightness Sun altitude
Rises 19:09:37 0° 216° (SW) 2,299 0.5 -15.7°
Reaches altitude 10° 19:11:42 10° 216° (SW) 1,440 -0.6 -16.2°
Maximum altitude 19:14:55 86° 307° (NW) 401 -3.9 -17.0°
Enters shadow 19:16:11 34° 33° (NNE) 674 -3.0 -17.4°
